Terug naar catalogus

FENGYUN 1C DEB

ActiefSSO
NORAD 31294·DEBRIS·🇨🇳 China

Gelanceerd May 10, 1999 vanaf Taiyuan Satellite Launch Center

Loading…

Volgende Passages (komende 24 uur)

TLE

VersSource: Space-Track

Epoch: Sep 14, 2026, 04:32 UTC

1 31294U 99025BPC 26257.18949800  .00000442  00000-0  23558-3 0  9991
2 31294  98.5608 246.6988 0098020 269.2290  89.7653 14.15741002  7504

Volg FENGYUN 1C DEB in realtime met AllMySat

Download on the App Store